Location: Arleux
(50.3632°N, 2.8721°E)
Time: 22:21:04
(UTC+00:00)

N. Korean satellite - Pass Details

Date: 08 March 2021
Orbit: 453 x 499 km, 97.2° (Epoch: 12 April)

Event Time Altitude Azimuth Distance (km) Brightness Sun altitude
Rises 04:42:50 0° 21° (NNE) 2,539 10.7 -15.8°
Reaches altitude 10° 04:45:04 10° 33° (NNE) 1,663 9.9 -15.5°
Maximum altitude 04:48:16 30° 96° (E) 900 8.7 -15.0°
Drops below altitude 10° 04:51:28 10° 159° (SSE) 1,673 9.4 -14.5°
Sets 04:53:43 0° 170° (S) 2,557 10.2 -14.1°
